Deer Park, WA
on Thursday, January 3, 2013

Thursday
Previous Day Next Day
Daily Summary
 ActualAverageRecord
Temperature
Mean Temperature °F 25°F  
Max Temperature 28°F 32°F 41°F (2012)
Min Temperature -2°F 19°F -20°F (2009)
Degree Days
Heating Degree Days 52 40  
Month to date heating degree days 152 120  
Since 1 July heating degree days 2945 3347  
Cooling Degree Days 0 0  
Month to date cooling degree days 0 0  
Year to date cooling degree days 0 0  
Moisture
Dew Point 7°F   
Average Humidity 84    
Maximum Humidity 100    
Minimum Humidity 68    
Precipitation
Precipitation 0.00 in 0.10 in 0.39 in (2000)
Month to date precipitation 0.00 0.32  
Year to date precipitation 0.00 0.32  
Wind
Wind Speed 3 mph   
Max Wind Speed 9 mph   
Max Gust Speed 12 mph   
Visibility 10 miles   
Events     

Key: T is trace of precipitation, MM is missing value
Source: NWS Daily Summary
Time(PST)TemperatureDew PointHumidity Pressure Visibility Wind DirectionWind SpeedGust SpeedPrecipitationEvents Conditions
12:53 AM 7.0°F 5.0°F 92% 30.52 in 10.0 miles NNW 6.9 mph - N/A   Clear
1:53 AM 9.0°F 5.0°F 84% 30.51 in 10.0 miles Calm Calm - N/A   Clear
2:53 AM 3.9°F -0.0°F 84% 30.52 in 10.0 miles NNW 4.6 mph - N/A   Clear
3:53 AM 3.0°F 1.0°F 91% 30.51 in 10.0 miles NW 3.5 mph - N/A   Clear
4:53 AM 3.0°F -0.0°F 87% 30.51 in 10.0 miles NW 4.6 mph - N/A   Clear
5:53 AM 1.0°F -2.9°F 83% 30.51 in 10.0 miles Calm Calm - N/A   Clear
6:53 AM 1.0°F -0.9°F 91% 30.51 in 10.0 miles Calm Calm - N/A   Clear
7:53 AM 1.9°F -0.9°F 88% 30.52 in 10.0 miles West 3.5 mph - N/A   Clear
8:53 AM 5.0°F 1.9°F 87% 30.52 in 10.0 miles WNW 3.5 mph - N/A   Clear
9:53 AM 12.0°F 10.0°F 92% 30.51 in 10.0 miles Calm Calm - N/A   Clear
10:53 AM 19.9°F 16.0°F 85% 30.48 in 10.0 miles NNE 5.8 mph - N/A   Clear
11:53 AM 25.0°F 17.1°F 72% 30.45 in 10.0 miles NE 3.5 mph - N/A   Clear
12:53 PM 26.1°F 17.1°F 69% 30.43 in 10.0 miles NE 5.8 mph - N/A   Clear
1:53 PM 27.0°F 17.1°F 66% 30.40 in 10.0 miles NE 9.2 mph - N/A   Clear
2:53 PM 25.0°F 16.0°F 69% 30.40 in 10.0 miles North 6.9 mph - N/A   Clear
3:53 PM 23.0°F 16.0°F 74% 30.40 in 10.0 miles North 4.6 mph - N/A   Clear
4:53 PM 15.1°F 12.9°F 91% 30.43 in 10.0 miles NW 3.5 mph - N/A   Clear
5:53 PM 9.0°F 8.1°F 96% 30.43 in 10.0 miles Calm Calm - N/A   Clear
6:53 PM 12.0°F 10.0°F 92% 30.45 in 10.0 miles WSW 6.9 mph - N/A   Clear
7:53 PM 8.1°F 6.1°F 92% 30.44 in 10.0 miles ENE 3.5 mph - N/A   Clear
8:53 PM 7.0°F 3.9°F 87% 30.44 in 10.0 miles Calm Calm - N/A   Clear
9:53 PM 9.0°F 7.0°F 92% 30.44 in 10.0 miles Calm Calm - N/A   Clear
10:53 PM 3.9°F 1.0°F 88% 30.46 in 10.0 miles Calm Calm - N/A   Partly Cloudy
11:53 PM 9.0°F 7.0°F 92% 30.44 in 10.0 miles Calm Calm - N/A   Overcast
Moon Phase
Jan. 03 Jan. 04 Jan. 11 Jan. 18 Jan. 26
Sunrise:07:39 AM (PST) Moon Rise:11:23 PM (PST)1/3
Sunset:04:09 PM (PST) Moon Set:10:22 AM (PST)1/3

Copyright © 2014 The Weather Underground, Inc.